ZL1UTH Weather Reports


time (UTC)temp
F
wind
direction
speed
knots
gust
knots
rain 1hr
in
rain 24hr
in
rain mn
in
humidity
%
barometer
mb
20260509064505 55 0 0.0 0.0 0.00 0.94 0.41 94 1011.8
20260509064204 55 0 0.0 0.0 0.00 0.94 0.41 94 1011.9
20260509063604 55 0 0.0 0.0 0.00 0.94 0.41 94 1011.6
20260509063303 55 0 0.0 0.0 0.00 0.94 0.41 94 1011.6
20260509063004 55 0 0.0 0.0 0.00 0.94 0.41 94 1011.5
20260509062704 55 0 0.0 0.0 0.00 0.94 0.41 95 1011.4
20260509062403 56 0 0.0 0.0 0.00 0.94 0.41 95 1011.4
20260509062104 56 0 0.0 0.0 0.00 0.94 0.41 94 1011.4
20260509061803 56 0 0.0 0.0 0.00 0.94 0.41 94 1011.3
20260509061505 56 0 0.0 0.0 0.00 0.94 0.41 94 1011.5
20260509061204 56 0 0.0 0.0 0.00 0.94 0.41 94 1011.5
20260509060906 56 0 0.0 0.0 0.00 0.94 0.41 94 1011.3
20260509060303 56 0 0.0 0.0 0.00 0.94 0.41 93 1011.6
20260509060004 56 0 0.0 0.0 0.00 0.94 0.41 93 1011.5
20260509055704 56 0 0.0 0.0 0.00 0.94 0.41 93 1011.5
20260509055106 56 0 0.0 0.0 0.00 0.94 0.41 93 1011.6
20260509054803 57 0 0.0 0.0 0.00 0.94 0.41 93 1011.5
20260509054203 57 178 0.0 1.7 0.00 0.94 0.41 93 1011.5
20260509053904 57 198 0.0 3.5 0.00 0.94 0.41 92 1011.5
20260509053603 58 225 0.0 5.2 0.00 0.94 0.41 92 1011.7
20260509053303 58 244 1.7 5.2 0.00 0.94 0.41 92 1011.7
20260509053004 58 252 2.6 5.2 0.00 0.94 0.41 91 1011.6
20260509052704 58 263 1.7 4.3 0.00 0.94 0.41 91 1011.8
20260509052405 58 266 1.7 6.1 0.00 0.94 0.41 91 1011.7
20260509052103 58 267 1.7 6.1 0.00 0.94 0.41 91 1011.6
20260509051805 58 258 1.7 6.1 0.00 0.94 0.41 91 1011.6
20260509051504 58 243 2.6 4.3 0.00 0.94 0.41 91 1011.6
20260509051204 59 231 0.0 4.3 0.00 0.94 0.41 90 1011.5
20260509050904 59 237 1.7 4.3 0.00 0.94 0.41 90 1011.6
20260509050604 59 231 1.7 1.7 0.00 0.94 0.41 90 1011.6
20260509050003 59 231 0.0 2.6 0.00 0.94 0.41 89 1011.6
20260509045405 59 241 0.9 2.6 0.00 0.94 0.41 89 1011.5
20260509045104 59 250 0.0 3.5 0.00 0.94 0.41 89 1011.6
20260509044204 59 227 1.7 3.5 0.00 0.94 0.41 90 1011.7
20260509043604 59 217 0.9 3.5 0.00 0.94 0.41 89 1011.6
20260509043303 60 243 0.0 2.6 0.00 0.94 0.41 88 1011.7
20260509043004 60 261 0.0 2.6 0.00 0.94 0.41 87 1011.7
20260509042704 60 269 0.9 2.6 0.00 0.94 0.41 87 1011.6
20260509042403 60 282 1.7 2.6 0.00 0.94 0.41 86 1011.6
20260509042103 60 270 0.9 2.6 0.00 0.94 0.41 85 1011.7
20260509041804 61 240 0.0 0.9 0.00 0.94 0.41 84 1011.8
20260509041504 61 264 0.0 0.9 0.00 0.94 0.41 83 1011.7
20260509041204 61 322 0.0 1.7 0.00 0.94 0.41 83 1011.8
20260509040904 61 321 0.0 1.7 0.00 0.94 0.41 83 1011.7
20260509040604 61 313 0.0 1.7 0.00 0.94 0.41 84 1011.7
20260509040004 61 264 0.0 1.7 0.00 0.94 0.41 83 1011.9
20260509035706 61 284 0.9 2.6 0.00 0.94 0.41 81 1011.9
20260509035406 61 271 0.0 3.5 0.00 0.94 0.41 81 1011.9
20260509034804 62 269 0.9 3.5 0.00 0.94 0.41 79 1011.8
20260509034506 62 247 1.7 4.3 0.00 0.94 0.41 79 1011.7
20260509034204 62 230 0.9 4.3 0.00 0.94 0.41 78 1011.6
20260509033903 63 217 1.7 5.2 0.00 0.94 0.41 76 1011.4
20260509033303 64 208 2.6 5.2 0.00 0.94 0.41 77 1011.6
20260509033004 63 217 1.7 4.3 0.00 0.94 0.41 77 1011.7
20260509032703 64 234 2.6 4.3 0.02 0.94 0.41 78 1011.6
20260509031804 62 196 3.5 4.3 0.09 0.94 0.41 84 1011.9
20260509031503 61 213 1.7 6.1 0.15 0.94 0.41 83 1011.7
20260509031204 60 206 3.5 6.1 0.15 0.94 0.41 84 1011.8
20260509030903 60 211 0.9 6.1 0.17 0.94 0.41 84 1011.8
20260509030604 60 203 3.5 6.1 0.17 0.94 0.41 84 1011.7
20260509025404 60 223 3.5 7.0 0.17 0.94 0.41 90 1011.8
20260509025104 61 217 1.7 4.3 0.17 0.94 0.41 90 1011.9
20260509024804 61 200 2.6 7.0 0.17 0.94 0.41 90 1011.8
20260509024503 61 200 1.7 7.0 0.17 0.94 0.41 91 1011.9
20260509023904 60 201 3.5 7.0 0.17 0.94 0.41 91 1012.0
20260509023604 59 211 3.5 6.1 0.17 0.94 0.41 90 1012.2
20260509023305 60 229 1.7 4.3 0.17 0.94 0.41 90 1012.3
20260509023005 60 208 1.7 5.2 0.15 0.93 0.40 89 1012.2
20260509022704 60 184 0.9 7.0 0.14 0.92 0.39 87 1012.2
20260509022404 60 171 0.9 7.0 0.12 0.90 0.37 85 1012.3
20260509021504 62 183 6.1 7.0 0.01 0.79 0.26 78 1012.2
20260509021203 63 151 1.7 4.3 0.00 0.78 0.25 77 1012.2
20260509020904 64 135 1.7 3.5 0.01 0.78 0.25 76 1012.0
20260509020603 64 314 0.0 0.9 0.01 0.78 0.25 76 1012.1
20260509020304 64 314 0.0 0.9 0.04 0.78 0.25 76 1012.1
20260509020004 64 314 0.0 0.9 0.04 0.78 0.25 76 1012.1
20260509015703 64 314 0.0 0.9 0.06 0.78 0.25 75 1012.1
20260509015405 64 314 0.0 0.9 0.09 0.78 0.25 76 1012.1
20260509015104 64 314 0.0 0.9 0.09 0.78 0.25 76 1012.1
20260509014804 64 314 0.0 1.7 0.09 0.78 0.25 76 1011.9
20260509014503 64 290 0.0 1.7 0.09 0.78 0.25 78 1012.0
20260509014203 64 281 0.0 1.7 0.09 0.78 0.25 78 1012.0
20260509013903 64 286 0.0 1.7 0.09 0.78 0.25 80 1012.0
20260509013604 64 254 0.0 3.5 0.09 0.78 0.25 83 1012.1
20260509013004 62 266 0.0 5.2 0.09 0.78 0.25 86 1012.2
20260509012704 61 264 1.7 6.1 0.09 0.78 0.25 87 1012.1
20260509012403 60 252 1.7 9.6 0.09 0.78 0.25 88 1012.0
20260509011803 60 238 1.7 9.6 0.09 0.78 0.25 86 1012.3
20260509011505 60 227 4.3 9.6 0.09 0.78 0.25 86 1012.2
20260509011204 60 193 1.7 9.6 0.09 0.78 0.25 83 1012.0
20260509010906 61 186 3.5 9.6 0.08 0.77 0.24 81 1012.2
20260509010304 63 187 3.5 6.1 0.06 0.74 0.21 74 1012.1
20260509010004 64 188 1.7 6.1 0.06 0.74 0.21 70 1012.0
20260509005704 65 196 3.5 7.0 0.04 0.72 0.19 67 1012.2
20260509005404 66 217 1.7 7.0 0.00 0.69 0.15 64 1012.2
20260509005106 67 233 2.6 7.0 0.00 0.69 0.15 61 1012.2
20260509004503 68 287 1.7 7.0 0.00 0.69 0.15 61 1012.2
20260509004205 67 296 3.5 7.0 0.00 0.69 0.15 62 1012.3
20260509003903 68 278 3.5 7.8 0.00 0.69 0.15 63 1012.2
20260509003604 67 256 3.5 9.6 0.00 0.69 0.15 62 1012.4
20260509002704 68 214 4.3 9.6 0.00 0.69 0.15 61 1012.6
20260509002104 68 240 3.5 10.4 0.00 0.69 0.15 61 1012.6
20260509001803 67 239 2.6 10.4 0.00 0.69 0.15 62 1012.7
20260509001503 67 236 5.2 10.4 0.00 0.69 0.15 62 1012.6
20260509001206 68 229 5.2 11.3 0.00 0.69 0.15 60 1012.6
20260509000904 68 258 3.5 11.3 0.00 0.69 0.15 63 1012.6
20260509000604 67 251 5.2 12.2 0.00 0.69 0.15 63 1012.8
20260509000304 66 285 6.1 12.2 0.00 0.69 0.15 66 1012.8
20260509000004 66 261 3.5 12.2 0.00 0.69 0.15 62 1012.8
20260508235704 68 246 7.8 12.2 0.00 0.69 0.15 60 1012.9
20260508235404 69 226 2.6 7.8 0.00 0.69 0.15 61 1012.9
20260508235103 69 243 2.6 8.7 0.00 0.69 0.15 62 1012.8
20260508234804 68 233 7.0 9.6 0.00 0.69 0.15 69 1013.1
20260508234503 65 228 1.7 13.9 0.00 0.69 0.15 70 1013.1
20260508234204 64 225 5.2 13.9 0.00 0.69 0.15 69 1013.1
20260508233903 64 219 3.5 13.9 0.00 0.69 0.15 69 1013.2
20260508233604 64 252 7.8 13.9 0.00 0.69 0.15 70 1013.2
20260508233004 63 258 4.3 14.8 0.00 0.69 0.15 72 1013.2
20260508232703 63 235 5.2 14.8 0.00 0.69 0.15 73 1013.2
20260508232404 63 247 2.6 14.8 0.00 0.69 0.15 73 1013.4
20260508231804 64 265 7.0 13.0 0.00 0.69 0.15 73 1013.3
20260508231506 64 256 3.5 7.0 0.00 0.69 0.15 72 1013.4
20260508230904 66 248 3.5 7.0 0.00 0.69 0.15 68 1013.4
20260508230603 67 209 3.5 7.0 0.00 0.69 0.15 64 1013.4
20260508230304 69 202 4.3 7.0 0.00 0.69 0.15 61 1013.5
20260508230004 72 209 4.3 7.0 0.00 0.69 0.15 59 1013.3
20260508225704 72 245 1.7 5.2 0.00 0.69 0.15 61 1013.2
20260508225406 71 290 1.7 5.2 0.00 0.69 0.15 65 1013.4
20260508225104 69 310 0.0 6.1 0.00 0.69 0.15 67 1013.3
20260508224804 68 318 0.9 6.1 0.00 0.69 0.15 69 1013.4
20260508224503 66 318 1.7 7.0 0.00 0.69 0.15 70 1013.4
20260508224204 66 315 4.3 7.8 0.00 0.69 0.15 70 1013.4
20260508223904 67 293 2.6 7.8 0.00 0.69 0.15 65 1013.5
20260508223603 69 255 2.6 7.8 0.00 0.69 0.15 63 1013.5
20260508223304 69 237 0.0 7.8 0.00 0.69 0.15 63 1013.5
20260508223004 69 253 1.7 7.0 0.00 0.69 0.15 64 1013.5
20260508222704 69 273 1.7 7.0 0.00 0.69 0.15 69 1013.5
20260508222406 68 241 0.9 11.3 0.00 0.69 0.15 68 1013.5
20260508222103 67 212 1.7 11.3 0.00 0.69 0.15 70 1013.5
20260508221805 67 221 3.5 11.3 0.00 0.69 0.15 69 1013.5
20260508221506 67 253 2.6 9.6 0.00 0.69 0.15 71 1013.4
20260508221203 66 286 1.7 7.0 0.00 0.69 0.15 73 1013.6
20260508220905 65 294 2.6 7.0 0.00 0.69 0.15 73 1013.6
20260508220604 65 278 4.3 7.0 0.00 0.69 0.15 73 1013.7
20260508220305 65 295 3.5 7.0 0.00 0.69 0.15 73 1013.7
20260508220004 64 314 1.7 7.0 0.00 0.69 0.15 72 1013.7
20260508215405 64 329 5.2 7.0 0.00 0.69 0.15 74 1013.6
20260508215103 64 296 1.7 6.1 0.00 0.69 0.15 75 1013.7
20260508214804 64 298 1.7 6.1 0.00 0.69 0.15 77 1013.8
20260508214504 64 283 3.5 6.1 0.00 0.69 0.15 80 1014.0
20260508214203 63 279 2.6 6.1 0.00 0.69 0.15 85 1014.1
20260508213904 62 285 3.5 6.1 0.00 0.69 0.15 88 1014.2
20260508213604 60 282 3.5 6.1 0.00 0.69 0.15 90 1014.2
20260508213304 60 285 3.5 6.1 0.00 0.69 0.15 91 1014.2
20260508213004 60 278 1.7 3.5 0.00 0.69 0.15 91 1014.3
20260508212703 60 304 1.7 5.2 0.00 0.69 0.15 92 1014.1
20260508212404 60 288 0.0 5.2 0.00 0.69 0.15 93 1014.2
20260508212104 60 291 0.9 5.2 0.00 0.69 0.15 94 1014.2
20260508211804 60 290 3.5 5.2 0.00 0.69 0.15 95 1014.3
20260508211504 60 293 0.9 4.3 0.00 0.69 0.15 96 1014.2
20260508211204 60 305 1.7 4.3 0.00 0.69 0.15 97 1014.2
20260508210905 60 283 1.7 4.3 0.00 0.69 0.15 98 1014.1
20260508210304 61 6 0.0 1.7 0.00 0.69 0.15 98 1013.9
20260508210006 62 10 0.9 1.7 0.00 0.69 0.15 98 1014.1
20260508205704 62 46 0.0 1.7 0.00 0.69 0.15 98 1014.2
20260508205404 62 46 0.9 1.7 0.00 0.69 0.15 98 1014.1
20260508204805 59 46 0.0 1.7 0.00 0.69 0.15 99 1014.1
20260508204504 58 326 0.0 3.5 0.00 0.69 0.15 99 1014.0
20260508203904 57 331 0.9 3.5 0.00 0.69 0.15 99 1014.1
20260508203603 57 23 0.0 1.7 0.00 0.69 0.15 99 1014.0
20260508203304 57 23 0.0 1.7 0.00 0.69 0.15 99 1013.8
20260508203004 57 0 0.0 0.0 0.00 0.69 0.15 99 1013.9
20260508202704 56 292 0.0 1.7 0.00 0.69 0.15 99 1013.9
20260508202403 56 292 0.0 1.7 0.00 0.69 0.15 99 1013.8
20260508202104 56 292 0.0 1.7 0.00 0.69 0.15 99 1013.8
20260508201803 56 298 1.7 1.7 0.00 0.69 0.15 99 1013.6
20260508201505 57 290 0.0 1.7 0.00 0.69 0.15 99 1013.7
20260508201204 57 290 0.0 1.7 0.00 0.69 0.15 99 1013.7
20260508200605 57 274 0.0 3.5 0.00 0.69 0.15 99 1013.7
20260508200303 57 269 0.0 3.5 0.00 0.69 0.15 99 1013.7
20260508195704 56 203 0.9 3.5 0.00 0.69 0.15 99 1013.9
20260508195404 56 194 0.0 2.6 0.00 0.69 0.15 99 1013.7
20260508194804 56 19 0.0 2.6 0.00 0.69 0.15 99 1013.6
20260508194206 56 23 1.7 2.6 0.00 0.69 0.15 99 1013.6
20260508193903 56 39 0.0 1.7 0.00 0.69 0.15 99 1013.6
20260508193604 56 30 0.0 1.7 0.00 0.69 0.15 99 1013.7
20260508193303 56 38 0.0 1.7 0.00 0.69 0.15 99 1013.5
20260508193003 56 38 0.9 1.7 0.00 0.69 0.15 99 1013.5
20260508192704 56 42 0.0 1.7 0.00 0.69 0.15 99 1013.6
20260508192406 56 44 0.0 1.7 0.00 0.69 0.15 99 1013.6
20260508192103 56 37 1.7 2.6 0.00 0.69 0.15 99 1013.7
20260508191804 56 24 0.9 2.6 0.00 0.69 0.15 99 1013.5
20260508191504 56 19 0.0 2.6 0.00 0.69 0.15 99 1013.5
20260508191206 55 18 1.7 2.6 0.00 0.69 0.15 99 1013.6
20260508190906 55 27 0.9 1.7 0.00 0.69 0.15 97 1013.6
20260508190604 55 1 0.0 0.9 0.00 0.69 0.15 97 1013.6
20260508190304 55 0 0.0 0.0 0.00 0.69 0.15 97 1013.4
20260508190004 55 0 0.0 0.0 0.00 0.69 0.15 97 1013.5
20260508185404 55 0 0.0 0.0 0.00 0.69 0.15 97 1013.7
20260508185104 55 0 0.0 0.0 0.00 0.69 0.15 97 1013.5
20260508183904 56 1 0.0 0.9 0.00 0.69 0.15 99 1013.2
20260508183304 56 1 0.0 0.9 0.00 0.69 0.15 99 1013.5
20260508183004 56 1 0.0 0.9 0.00 0.69 0.15 99 1013.5
20260508182703 56 0 0.0 0.0 0.00 0.69 0.15 99 1013.4
20260508182104 56 0 0.0 0.0 0.00 0.69 0.15 99 1013.5
20260508181805 56 0 0.0 0.0 0.00 0.69 0.15 99 1013.7
20260508181503 56 0 0.0 0.0 0.00 0.69 0.15 99 1013.6
20260508181204 56 0 0.0 0.0 0.00 0.69 0.15 99 1013.6
20260508180604 57 314 0.0 2.6 0.00 0.69 0.15 99 1013.7
20260508180304 57 314 0.0 2.6 0.00 0.69 0.15 99 1013.7
20260508180004 57 306 0.0 2.6 0.00 0.69 0.15 99 1013.6
20260508175704 57 301 1.7 2.6 0.00 0.69 0.15 99 1013.6
20260508175403 57 291 0.0 2.6 0.00 0.69 0.15 99 1013.6
20260508175104 57 331 0.0 2.6 0.00 0.69 0.15 99 1013.7
20260508174803 57 332 0.0 2.6 0.00 0.69 0.15 99 1013.7
20260508174504 57 332 0.0 2.6 0.00 0.69 0.15 99 1013.6
20260508174204 57 332 0.0 2.6 0.00 0.69 0.15 99 1013.7
20260508173903 57 0 0.0 0.0 0.00 0.69 0.15 99 1013.6
20260508173604 56 45 0.0 0.9 0.00 0.69 0.15 99 1013.7
20260508173005 56 45 0.0 0.9 0.00 0.69 0.15 99 1013.7
20260508172703 56 0 0.0 0.0 0.00 0.69 0.15 99 1013.6
20260508172405 56 0 0.0 0.0 0.00 0.69 0.15 99 1013.5
20260508172103 56 0 0.0 0.0 0.00 0.69 0.15 99 1013.6
20260508171803 56 0 0.0 0.0 0.00 0.69 0.15 99 1013.7
20260508171505 56 0 0.0 0.0 0.00 0.69 0.15 99 1013.8
20260508171204 56 0 0.0 0.0 0.00 0.69 0.15 99 1013.8
20260508170903 56 0 0.0 0.0 0.00 0.69 0.15 99 1013.8
20260508170604 56 0 0.0 0.0 0.00 0.69 0.15 99 1013.8
20260508170304 56 0 0.0 0.0 0.00 0.69 0.15 99 1013.9
20260508170005 56 45 0.0 0.9 0.00 0.69 0.15 99 1013.9
20260508165704 56 45 0.0 0.9 0.00 0.69 0.15 99 1013.9
20260508165404 56 45 0.0 0.9 0.00 0.69 0.15 99 1013.9
20260508165104 56 46 0.0 0.9 0.00 0.69 0.15 99 1014.0
20260508164804 56 0 0.0 0.0 0.00 0.69 0.15 99 1013.9
20260508164504 56 0 0.0 0.0 0.00 0.69 0.15 99 1013.9
20260508163903 56 0 0.0 0.0 0.00 0.69 0.15 99 1013.9
20260508163603 56 0 0.0 0.0 0.00 0.69 0.15 99 1013.9
20260508163004 56 292 0.0 0.9 0.00 0.69 0.15 99 1013.8
20260508162704 56 337 0.0 0.9 0.00 0.69 0.15 99 1013.7
20260508162404 56 337 0.0 0.9 0.00 0.69 0.15 99 1013.6
20260508162104 56 337 0.0 0.9 0.00 0.69 0.15 99 1013.7
20260508161803 56 0 0.0 0.0 0.00 0.69 0.15 99 1013.5
20260508161504 56 0 0.0 0.0 0.00 0.69 0.15 99 1013.5
20260508160903 56 0 0.0 0.0 0.00 0.69 0.15 99 1013.6
20260508160604 56 0 0.0 0.0 0.00 0.69 0.15 99 1013.5
20260508160303 56 0 0.0 0.0 0.00 0.69 0.15 99 1013.5
20260508155404 56 0 0.0 0.0 0.00 0.69 0.15 99 1013.5
20260508155104 56 0 0.0 0.0 0.00 0.69 0.15 99 1013.7
20260508154804 56 314 0.0 1.7 0.00 0.69 0.15 99 1013.6
20260508154504 56 15 0.0 1.7 0.00 0.69 0.15 99 1013.7
20260508153904 56 7 0.0 1.7 0.00 0.69 0.15 99 1013.7
20260508153605 56 14 0.9 1.7 0.00 0.69 0.15 99 1013.6
20260508153303 56 2 0.0 2.6 0.00 0.69 0.15 99 1013.7
20260508153004 56 17 0.0 2.6 0.00 0.69 0.15 99 1013.6
20260508152704 56 28 0.0 2.6 0.00 0.69 0.15 99 1013.8
20260508152105 56 39 0.9 2.6 0.00 0.69 0.15 99 1013.8
20260508151803 56 39 0.9 1.7 0.00 0.69 0.15 99 1013.7
20260508150604 56 35 0.0 1.7 0.00 0.69 0.15 99 1014.0
20260508150304 56 41 0.0 1.7 0.00 0.69 0.15 99 1014.0
20260508150004 56 41 0.0 1.7 0.00 0.69 0.15 99 1014.1
20260508145706 56 37 0.0 1.7 0.00 0.69 0.15 99 1014.2
20260508145404 56 11 0.0 1.7 0.00 0.69 0.15 99 1014.3
20260508144803 56 1 0.0 1.7 0.00 0.69 0.15 99 1014.3
20260508144505 56 1 0.0 1.7 0.00 0.69 0.15 99 1014.3
20260508144204 56 6 0.9 1.7 0.00 0.69 0.15 99 1014.5
20260508143904 56 21 0.0 0.9 0.00 0.69 0.15 99 1014.6
20260508143604 56 20 0.0 0.9 0.00 0.69 0.15 99 1014.5
20260508143303 56 13 0.0 0.9 0.00 0.69 0.15 99 1014.5
20260508143004 56 9 0.0 0.9 0.00 0.69 0.15 98 1014.6
20260508142704 56 36 0.0 0.9 0.00 0.69 0.15 98 1014.5
20260508142404 56 40 0.0 0.9 0.00 0.69 0.15 98 1014.6
20260508142105 56 22 0.0 0.9 0.00 0.69 0.15 98 1014.6
20260508141804 57 2 0.0 0.9 0.00 0.69 0.15 98 1014.7
20260508141504 57 5 0.0 1.7 0.00 0.69 0.15 98 1014.9
20260508141204 57 5 0.0 1.7 0.00 0.69 0.15 98 1014.7
20260508140903 57 5 0.0 1.7 0.00 0.69 0.15 98 1014.7
20260508140604 57 3 0.0 1.7 0.00 0.69 0.15 97 1014.8
20260508140303 57 7 0.0 0.9 0.00 0.69 0.15 97 1014.8
20260508140005 58 12 0.0 0.9 0.00 0.69 0.15 96 1014.7
20260508135704 58 0 0.0 0.0 0.00 0.69 0.15 96 1014.8
20260508135103 58 0 0.0 0.0 0.00 0.69 0.15 96 1014.5
20260508134804 58 314 0.0 1.7 0.00 0.69 0.15 96 1015.0
20260508134204 58 314 0.0 1.7 0.00 0.69 0.15 96 1015.0
20260508133903 58 314 0.9 1.7 0.00 0.69 0.15 96 1015.0
20260508133304 58 0 0.0 0.0 0.01 0.69 0.15 96 1015.1
20260508132704 58 0 0.0 0.0 0.01 0.69 0.15 96 1015.0
20260508132404 58 0 0.0 0.0 0.01 0.69 0.15 96 1015.1
20260508132105 58 0 0.0 0.0 0.01 0.69 0.15 96 1014.8
20260508131804 58 0 0.0 0.0 0.02 0.69 0.15 96 1014.7
20260508131505 58 0 0.0 0.0 0.02 0.69 0.15 96 1014.8
20260508130904 58 181 0.0 0.9 0.04 0.69 0.15 96 1014.9
20260508130603 58 167 0.0 0.9 0.05 0.69 0.15 96 1014.9
20260508130304 58 135 0.0 0.9 0.09 0.69 0.15 96 1014.9
20260508130005 59 135 0.0 0.9 0.15 0.69 0.15 96 1014.9
20260508125704 59 147 0.0 1.7 0.17 0.69 0.15 96 1014.9
20260508125403 59 146 0.0 1.7 0.18 0.69 0.15 96 1014.7
20260508125104 59 152 0.0 1.7 0.18 0.69 0.15 96 1014.9
20260508124804 59 179 0.0 1.7 0.19 0.69 0.15 96 1015.0
20260508124504 59 224 0.0 3.5 0.19 0.69 0.15 96 1014.9
20260508124204 59 233 0.0 4.3 0.20 0.69 0.15 96 1015.0
20260508123605 59 194 0.9 7.0 0.21 0.67 0.14 94 1014.9
20260508123303 59 182 0.0 7.0 0.22 0.67 0.14 94 1015.0
20260508123004 59 211 1.7 7.0 0.22 0.67 0.14 94 1015.1
20260508122703 59 213 2.6 7.0 0.24 0.67 0.14 94 1015.0
20260508122403 59 228 2.6 9.6 0.25 0.67 0.14 94 1014.9
20260508121504 60 191 7.0 9.6 0.25 0.66 0.13 94 1014.7
20260508121204 61 202 3.5 9.6 0.25 0.65 0.12 93 1014.9
20260508120904 62 218 5.2 9.6 0.26 0.65 0.12 92 1014.6
20260508120603 62 290 3.5 9.6 0.25 0.63 0.09 92 1014.6
20260508120305 62 327 3.5 7.8 0.19 0.57 0.04 92 1014.6
20260508120006 63 326 2.6 13.9 0.17 0.53 0.00 90 1014.4
20260508115703 63 319 3.5 13.9 0.17 0.51 0.51 90 1014.0
20260508115404 63 311 1.7 13.9 0.17 0.51 0.51 90 1013.8
20260508115103 63 313 9.6 13.9 0.17 0.50 0.50 91 1013.8
20260508114803 63 323 1.7 13.0 0.18 0.50 0.50 91 1013.9
20260508114506 62 325 3.5 13.0 0.19 0.50 0.50 92 1014.1
20260508114204 63 337 3.5 12.2 0.19 0.48 0.48 90 1014.0
20260508113904 62 342 5.2 12.2 0.19 0.47 0.47 91 1014.2
20260508113304 62 333 3.5 12.2 0.19 0.45 0.45 91 1014.2
20260508113004 62 310 3.5 13.0 0.19 0.45 0.45 91 1014.4
20260508112706 62 312 1.7 13.0 0.18 0.44 0.44 91 1014.2
20260508112404 63 304 1.7 13.0 0.17 0.43 0.43 90 1014.4
20260508112104 62 315 8.7 13.0 0.18 0.43 0.43 91 1014.4
20260508111804 62 315 3.5 11.3 0.17 0.41 0.41 91 1014.3
20260508111504 62 325 5.2 13.9 0.19 0.41 0.41 91 1014.3
20260508110904 62 325 5.2 13.9 0.20 0.39 0.39 92 1014.4
20260508110604 62 322 4.3 13.9 0.19 0.38 0.38 92 1014.3
20260508110307 62 319 3.5 11.3 0.21 0.38 0.38 92 1014.5
20260508110004 62 318 7.8 11.3 0.24 0.37 0.37 92 1014.5
20260508105405 62 313 3.5 7.0 0.22 0.34 0.34 91 1014.7
20260508105104 62 307 1.7 7.8 0.21 0.33 0.33 91 1014.9
20260508104504 62 293 0.0 8.7 0.19 0.31 0.31 92 1014.9
20260508104203 62 303 3.5 8.7 0.18 0.30 0.30 92 1015.1
20260508103903 62 308 1.7 8.7 0.17 0.28 0.28 92 1015.0
20260508103003 62 318 3.5 9.6 0.14 0.26 0.26 92 1014.7
20260508102704 62 325 1.7 9.6 0.17 0.26 0.26 92 1015.0
20260508102405 62 335 7.0 9.6 0.18 0.26 0.26 92 1015.0
20260508101803 62 354 3.5 11.3 0.17 0.25 0.25 91 1015.1
20260508101507 62 339 6.1 11.3 0.14 0.22 0.22 91 1015.2
20260508101205 62 332 3.5 14.8 0.12 0.20 0.20 90 1015.3
20260508100603 62 326 7.0 14.8 0.09 0.18 0.18 89 1015.7
20260508100305 63 325 7.0 12.2 0.09 0.17 0.17 88 1016.0
20260508095704 63 332 2.6 13.0 0.05 0.12 0.12 87 1015.8
20260508095404 63 332 3.5 14.8 0.05 0.12 0.12 87 1015.7
20260508095106 63 332 2.6 14.8 0.05 0.12 0.12 88 1015.6
20260508094504 63 310 5.2 18.2 0.06 0.12 0.12 88 1015.5
20260508094205 63 300 1.7 18.2 0.07 0.12 0.12 88 1015.6
20260508093603 63 313 9.6 20.9 0.09 0.12 0.12 88 1015.7
20260508093307 63 313 10.4 20.9 0.09 0.12 0.12 88 1015.6
20260508093005 63 333 11.3 20.9 0.09 0.12 0.12 88 1015.9
20260508092704 63 333 7.0 15.6 0.07 0.09 0.09 88 1015.9
20260508092404 63 330 3.5 7.8 0.06 0.08 0.08 88 1015.9
20260508092103 63 317 4.3 7.8 0.06 0.08 0.08 88 1015.8
20260508091804 63 291 3.5 7.0 0.07 0.08 0.08 88 1016.0
20260508091504 63 321 3.5 10.4 0.07 0.08 0.08 88 1015.6
20260508091205 63 315 0.0 13.0 0.07 0.08 0.08 88 1015.7
20260508090906 63 327 4.3 13.0 0.07 0.08 0.08 88 1015.1
20260508090604 63 330 5.2 13.0 0.07 0.08 0.08 88 1015.2
20260508090304 63 349 3.5 8.7 0.06 0.07 0.07 88 1016.0
20260508085706 63 341 1.7 10.4 0.06 0.07 0.07 89 1016.2
20260508085404 63 339 2.6 10.4 0.06 0.07 0.07 89 1016.3
20260508085104 63 327 2.6 10.4 0.06 0.07 0.07 88 1016.2
20260508084804 63 325 5.2 10.4 0.05 0.06 0.06 88 1016.3
20260508084505 63 317 5.2 9.6 0.05 0.06 0.06 87 1016.4
20260508084204 63 332 3.5 13.9 0.04 0.05 0.05 87 1016.4
20260508083904 63 330 5.2 13.9 0.02 0.04 0.04 86 1016.5
20260508083604 63 338 7.0 13.9 0.01 0.02 0.02 86 1016.6
20260508083004 63 316 2.6 13.0 0.01 0.02 0.02 85 1016.6
20260508082704 63 314 3.5 13.0 0.01 0.02 0.02 84 1016.5
20260508082404 64 322 3.5 13.0 0.01 0.02 0.02 83 1016.7
20260508082104 64 314 7.0 13.0 0.01 0.02 0.02 83 1016.6
20260508081804 64 321 7.0 13.0 0.00 0.01 0.01 82 1016.8
20260508081505 64 302 7.0 13.9 0.00 0.01 0.01 81 1016.8
20260508081204 64 315 4.3 13.9 0.00 0.01 0.01 81 1016.9
20260508080904 64 311 3.5 17.4 0.00 0.01 0.01 80 1016.8
20260508080604 64 318 3.5 17.4 0.00 0.01 0.01 81 1016.7
20260508080305 65 317 1.7 17.4 0.01 0.01 0.01 80 1016.8
20260508080005 65 319 7.0 17.4 0.01 0.01 0.01 80 1016.7
20260508075703 65 333 5.2 13.0 0.01 0.01 0.01 81 1016.7
20260508075103 64 327 5.2 13.0 0.01 0.01 0.01 81 1016.6
20260508074803 64 318 7.8 13.0 0.01 0.01 0.01 83 1016.4
20260508074504 64 305 1.7 6.1 0.01 0.01 0.01 84 1016.5
20260508074206 64 301 3.5 6.1 0.01 0.01 0.01 84 1016.4
20260508073603 64 7 0.9 3.5 0.01 0.01 0.01 84 1016.5
20260508073004 64 336 1.7 7.0 0.01 0.01 0.01 83 1016.3
20260508072706 64 327 1.7 7.0 0.01 0.01 0.01 83 1016.4
20260508072404 64 331 1.7 7.0 0.01 0.01 0.01 83 1016.4
20260508072104 64 344 1.7 7.0 0.01 0.01 0.01 84 1016.4
20260508071504 64 320 1.7 7.0 0.01 0.01 0.01 85 1016.6
20260508071203 64 314 5.2 9.6 0.01 0.01 0.01 85 1016.7
20260508070903 64 315 2.6 9.6 0.01 0.01 0.01 85 1016.8
20260508070306 64 323 2.6 8.7 0.00 0.00 0.00 84 1016.8
20260508070004 64 314 2.6 9.6 0.00 0.00 0.00 84 1016.8
20260508065704 64 321 3.5 9.6 0.00 0.00 0.00 84 1017.0
20260508065404 64 326 7.0 9.6 0.00 0.00 0.00 83 1017.0
20260508065104 64 344 4.3 9.6 0.00 0.00 0.00 83 1016.9